User: anonymous
Location: Brno
(49.2000°N, 16.6330°E)
Time: 07:51:00
(UTC+02:00)
Language:

Cosmos 1206 Rocket - Orbit

View from above orbital plane
View from above orbital plane
View from above satellite
View from above satellite

Ground track
Ground track

The orbit data is extracted from the following two-line orbital elements,

1 11933U 80069B   14109.87364551  .00327209  39594-4  93931-3 0  3072
2 11933 081.1920 058.3680 0011651 135.1768 225.0445 15.92958432854057
Epoch (UTC): 19 April 2014 20:58:02
Eccentricity: 0.0011651
inclination: 81.1920°
perigee height: 286 km
apogee height: 302 km
right ascension of ascending node: 58.3680°
argument of perigee: 135.1768°
revolutions per day: 15.92958432
mean anomaly at epoch: 225.0445°
orbit number at epoch: 85405

The dashed part of the orbit path shows where the satellite is in the earth's shadow,  

DLR